[[{"header":{"parameterUnit":"m.s-1","parameterCategory":1,"la1":30.2991,"la2":30.254,"lo1":-89.0895,"lo2":-89.0444,"dy":0.0017,"dx":0.0017,"nx":28,"ny":28,"refTime":"2024-06-03T03:00:00:Z","depth":0,"parameterNumber":2,"parameterNumberName":"U-component_of_WINDS"},"data":[0,0,0,0,0,0,0,0,0,0,0,0,0,0,0,0,0,0,0,0,0,0,0,0,0,0,0,0,0,0,0,0,0,0,0,0,0,0,0,0,0,0,0,0,0,0,0,0,0,0,0,0,0,0,0,0,0,0,-1.2765,-1.2765,0,-1.2772,-1.2772,-1.2772,-1.2747,-1.2746,-1.2745,-1.2744,-1.2753,-1.2754,-1.2755,0,0,0,0,0,0,0,0,0,0,0,0,0,-1.2731,-1.2732,-1.2765,-1.2765,-1.2765,-1.2772,-1.2772,-1.2772,-1.2747,-1.2746,-1.2745,-1.2744,-1.2753,-1.2754,-1.2755,0,0,0,0,0,0,0,0,0,0,0,0,0,-1.2743,-1.2732,-1.2765,-1.2753,-1.2752,-1.2772,-1.2772,-1.2772,-1.2747,-1.2746,-1.2745,-1.2744,-1.2752,-1.2754,-1.2755,-1.2787,0,0,-1.2759,-1.276,0,0,0,0,0,0,0,0,-1.2742,-1.2744,-1.2755,-1.2754,-1.2753,-1.2757,-1.2763,-1.2777,-1.2747,-1.2749,-1.2744,-1.2743,-1.2755,-1.2757,-1.276,-1.2787,-1.2788,-1.276,-1.276,-1.2761,-1.2761,0,0,0,0,0,0,0,-1.2741,-1.2744,-1.2768,-1.2755,-1.2754,-1.2748,-1.2749,-1.2766,-1.2759,-1.2749,-1.2747,-1.2748,-1.2755,-1.2759,-1.2761,-1.2788,-1.276,-1.2761,-1.2762,-1.2762,-1.2842,-1.2843,0,0,0,0,0,0,-1.2742,-1.2743,-1.2768,-1.2768,-1.2745,-1.275,-1.275,-1.2757,-1.2758,-1.2758,-1.2749,-1.2747,-1.2757,-1.2759,-1.2761,-1.2798,-1.2761,-1.2762,-1.2763,-1.284,-1.2842,-1.2843,0,0,0,0,0,0,-1.2741,-1.2744,-1.2767,-1.2755,-1.2758,-1.2752,-1.276,-1.2758,-1.2762,-1.2759,-1.2757,-1.2755,-1.2756,-1.2759,-1.2781,-1.2798,-1.2763,-1.2764,-1.2839,-1.2841,-1.2843,-1.2873,0,0,0,0,0,0,-1.274,-1.2744,-1.2756,-1.2756,-1.2758,-1.2787,-1.2761,-1.2759,-1.2765,-1.2762,-1.2764,-1.2763,-1.2756,-1.2779,-1.2782,-1.2799,-1.2765,-1.2837,-1.284,-1.2842,-1.2871,-1.2876,-1.288,0,0,0,0,0,-1.2739,-1.2765,-1.2757,-1.276,-1.2773,-1.2788,-1.279,-1.278,-1.2766,-1.2778,-1.2776,-1.2763,-1.2796,-1.2781,-1.2785,-1.2803,-1.2836,-1.2839,-1.2842,-1.2868,-1.2875,-1.288,0,0,0,0,0,0,-1.2768,-1.2764,-1.2756,-1.2781,-1.2785,-1.2784,-1.2798,-1.2788,-1.2796,-1.2793,-1.2782,-1.2782,-1.2806,-1.2807,-1.2791,-1.2834,-1.2813,-1.2817,-1.2832,-1.2839,-1.2843,-1.2843,-1.2767,0,0,0,0,0,-1.2777,-1.2789,-1.2786,-1.2809,-1.2811,-1.2805,-1.2811,-1.2803,-1.2807,-1.2809,-1.2808,-1.2812,-1.2823,-1.2831,-1.2841,-1.2871,-1.2871,-1.2885,-1.289,-1.2894,-1.2897,-1.2913,-1.2919,-1.2853,-1.2852,-1.2852,0,0,-1.2796,-1.2796,-1.2804,-1.2815,-1.2817,-1.283,-1.2806,-1.2821,-1.2831,-1.2811,-1.2831,-1.2831,-1.2835,-1.2861,-1.2872,-1.2862,-1.2915,-1.2897,-1.2901,-1.2902,-1.2916,-1.2922,-1.2928,-1.2854,-1.2854,-1.2854,0,0,-1.2838,-1.2839,-1.2858,-1.2861,-1.2864,-1.2859,-1.2864,-1.2864,-1.2863,-1.2883,-1.2869,-1.288,-1.29,-1.2904,-1.2908,-1.2951,-1.294,-1.2955,-1.2981,-1.2996,-1.3001,-1.3006,-1.3021,-1.3027,-1.2958,-1.2958,-1.2958,0,-1.2862,-1.288,-1.287,-1.2886,-1.2891,-1.2873,-1.2893,-1.2896,-1.2902,-1.2906,-1.2895,-1.2919,-1.2921,-1.2947,-1.2957,-1.2962,-1.2967,-1.2955,-1.3001,-1.3006,-1.301,-1.3024,-1.303,-1.296,-1.296,-1.296,-1.296,0,-1.2909,-1.2923,-1.2938,-1.2944,-1.2951,-1.2969,-1.2961,-1.297,-1.2962,-1.2959,-1.298,-1.2981,-1.2991,-1.2997,-1.2989,-1.3022,-1.3016,-1.3003,-1.2982,-1.3018,-1.3031,-1.3037,-1.2963,-1.2962,-1.2962,-1.2961,0,0,-1.2969,-1.2969,-1.2975,-1.2977,-1.298,-1.299,-1.3007,-1.3016,-1.3024,-1.3029,-1.3043,-1.306,-1.3048,-1.3053,-1.3046,-1.306,-1.3094,-1.3045,-1.3045,-1.3054,-1.313,-1.3139,-1.3146,-1.3086,-1.3087,-1.3088,-1.313,0,-1.301,-1.3039,-1.303,-1.3059,-1.3071,-1.3054,-1.3069,-1.3073,-1.307,-1.3081,-1.3078,-1.309,-1.3074,-1.3077,-1.3089,-1.3087,-1.3109,-1.3084,-1.31,-1.31,-1.3099,-1.3153,-1.3163,-1.3202,-1.3135,-1.3136,-1.3136,0,-1.3062,-1.3068,-1.3098,-1.3098,-1.3103,-1.3116,-1.3124,-1.3134,-1.3138,-1.3135,-1.3141,-1.3131,-1.3148,-1.3128,-1.3152,-1.3135,-1.3141,-1.3141,-1.3142,-1.3143,-1.312,-1.3155,-1.3214,-1.322,-1.3144,-1.3144,-1.3143,0,-1.3102,-1.3118,-1.3138,-1.3141,-1.3142,-1.3152,-1.3152,-1.3155,-1.3161,-1.3168,-1.3172,-1.3181,-1.3186,-1.3194,-1.3187,-1.3173,-1.3212,-1.3191,-1.321,-1.3211,-1.3219,-1.3219,-1.328,-1.3224,-1.3223,-1.3223,-1.3223,0,-1.3148,-1.3167,-1.3156,-1.3169,-1.319,-1.318,-1.3201,-1.32,-1.3202,-1.3214,-1.3201,-1.3213,-1.3203,-1.3214,-1.3209,-1.3229,-1.3232,-1.3231,-1.3229,-1.3232,-1.3232,-1.3235,-1.3232,-1.3225,-1.3225,-1.3224,-1.3224,0,-1.3197,-1.319,-1.3211,-1.321,-1.321,-1.3225,-1.3224,-1.3236,-1.3233,-1.3248,-1.3251,-1.3246,-1.3259,-1.3253,-1.3266,-1.3262,-1.3289,-1.3284,-1.3287,-1.3286,-1.3306,-1.3304,-1.3371,-1.3379,-1.3318,-1.3318,-1.3319,0,-1.3227,-1.3241,-1.3241,-1.3248,-1.3249,-1.3261,-1.3267,-1.3257,-1.3264,-1.3269,-1.3281,-1.3292,-1.33,-1.3321,-1.3319,-1.3329,-1.3324,-1.3346,-1.3325,-1.3327,-1.3324,-1.3323,-1.3324,-1.335,-1.3351,-1.3352,-1.3352,0,-1.3281,-1.3277,-1.3285,-1.3293,-1.3301,-1.3307,-1.3312,-1.3318,-1.3309,-1.3318,-1.333,-1.3336,-1.3349,-1.3361,-1.337,-1.3371,-1.336,-1.3359,-1.3364,-1.3367,-1.3368,-1.3367,-1.3299,-1.3357,-1.3357,-1.3357,-1.3356,-1.3356,-1.3321,-1.3332,-1.3334,-1.3345,-1.3347,-1.3352,-1.3363,-1.336,-1.337,-1.338,-1.3374,-1.3388,-1.3391,-1.3402,-1.3405,-1.3416,-1.3407,-1.3414,-1.3416,-1.3418,-1.3421,-1.3367,-1.3418,-1.3418,-1.3417,-1.3417,-1.3417,0,-1.3374,-1.3374,-1.3383,-1.339,-1.3399,-1.3387,-1.3392,-1.34,-1.3413,-1.3416,-1.3425,-1.3439,-1.345,-1.3448,-1.3458,-1.3468,-1.3463,-1.3471,-1.347,-1.347,-1.3428,-1.3423,-1.3474,-1.3474,-1.3474,-1.3474,-1.3474,-1.3474,-1.3402,-1.3421,-1.3418,-1.3438,-1.3438,-1.3452,-1.3455,-1.346,-1.3463,-1.3479,-1.3487,-1.3486,-1.3488,-1.3498,-1.3508,-1.3507,-1.3511,-1.3521,-1.3518,-1.3479,-1.3473,-1.3468,-1.3463,-1.3522,-1.3522,-1.3559,-1.356,-1.356]},{"header":{"parameterUnit":"m.s-1","parameterCategory":1,"la1":30.2991,"la2":30.254,"lo1":-89.0895,"lo2":-89.0444,"dy":0.0017,"dx":0.0017,"nx":28,"ny":28,"refTime":"2024-06-03T03:00:00:Z","depth":0,"parameterNumber":3,"parameterNumberName":"V-component_of_WINDS"},"data":[0,0,0,0,0,0,0,0,0,0,0,0,0,0,0,0,0,0,0,0,0,0,0,0,0,0,0,0,0,0,0,0,0,0,0,0,0,0,0,0,0,0,0,0,0,0,0,0,0,0,0,0,0,0,0,0,0,0,3.0071,3.0072,0,3.0135,3.0135,3.0136,3.0094,3.0092,3.009,3.0088,3.0151,3.0155,3.0158,0,0,0,0,0,0,0,0,0,0,0,0,0,2.9911,2.9914,3.0071,3.0072,3.0073,3.0135,3.0135,3.0136,3.0094,3.0092,3.0089,3.0087,3.015,3.0154,3.0159,0,0,0,0,0,0,0,0,0,0,0,0,0,2.9978,2.9915,3.0071,3.0059,3.0059,3.0134,3.0135,3.0136,3.0095,3.0092,3.0089,3.0086,3.0149,3.0154,3.0159,3.0249,0,0,3.0175,3.0177,0,0,0,0,0,0,0,0,2.9974,2.9984,3.006,3.006,3.006,3.0103,3.0102,3.0174,3.0095,3.0081,3.0088,3.0085,3.0138,3.0144,3.0162,3.0252,3.0255,3.0176,3.0179,3.0181,3.0182,0,0,0,0,0,0,0,2.997,2.9981,3.0096,3.0061,3.0061,3.005,3.0056,3.0116,3.0125,3.0082,3.0079,3.0087,3.0137,3.0157,3.0163,3.0256,3.0175,3.018,3.0183,3.0185,3.0422,3.0425,0,0,0,0,0,0,2.9966,2.9977,3.0094,3.0098,3.0009,3.0055,3.0062,3.0092,3.0124,3.0126,3.009,3.0085,3.0149,3.0157,3.0165,3.0272,3.0181,3.0186,3.0189,3.0419,3.0423,3.0426,0,0,0,0,0,0,2.9963,2.9977,3.0092,3.0037,3.0051,3.0061,3.0095,3.0095,3.0115,3.013,3.0131,3.0109,3.0147,3.0158,3.0228,3.0273,3.0188,3.0193,3.0415,3.042,3.0424,3.0486,0,0,0,0,0,0,2.9959,2.9976,3.0011,3.0038,3.0054,3.0155,3.0098,3.0098,3.0124,3.0119,3.0148,3.015,3.0146,3.0221,3.0234,3.0279,3.0197,3.0411,3.0417,3.0423,3.048,3.0493,3.0503,0,0,0,0,0,2.9953,3.0026,3.0013,3.0028,3.0098,3.0158,3.0166,3.0161,3.0128,3.0163,3.0172,3.0149,3.0267,3.0229,3.0243,3.029,3.0408,3.0415,3.0422,3.0475,3.049,3.0503,0,0,0,0,0,0,3.0004,3.003,3.0016,3.01,3.0127,3.015,3.0194,3.0177,3.0214,3.0207,3.0198,3.0205,3.0279,3.0292,3.0249,3.0378,3.0332,3.0342,3.0367,3.0382,3.0393,3.0388,3.0201,0,0,0,0,0,3.0025,3.0072,3.0092,3.0164,3.0178,3.0184,3.021,3.0203,3.0231,3.0242,3.0256,3.0284,3.0326,3.0355,3.0395,3.0482,3.0487,3.0522,3.0533,3.0542,3.0551,3.0597,3.0612,3.0449,3.0449,3.0449,0,0,3.0069,3.0089,3.0119,3.0175,3.0195,3.0243,3.0194,3.0247,3.0282,3.025,3.0317,3.0329,3.0358,3.0437,3.0473,3.045,3.0597,3.0551,3.0559,3.0562,3.0606,3.0621,3.0635,3.0454,3.0453,3.0452,0,0,3.0174,3.0194,3.0256,3.0277,3.0308,3.0312,3.0326,3.0353,3.0359,3.0427,3.0403,3.0444,3.0519,3.054,3.0561,3.0673,3.0652,3.0686,3.0746,3.079,3.0803,3.0814,3.0853,3.0867,3.0695,3.0695,3.0695,0,3.0225,3.0297,3.029,3.0345,3.0369,3.0342,3.0404,3.0425,3.0468,3.0485,3.0459,3.0551,3.0569,3.0652,3.0679,3.0697,3.0713,3.0683,3.0802,3.0813,3.0824,3.0861,3.0875,3.0699,3.0699,3.0698,3.0698,0,3.0357,3.0407,3.0453,3.0495,3.0525,3.0583,3.0584,3.0615,3.0606,3.0611,3.068,3.07,3.0744,3.0763,3.0755,3.0845,3.0829,3.0803,3.0756,3.0843,3.0878,3.0892,3.0705,3.0703,3.0702,3.0701,0,0,3.0496,3.0533,3.055,3.0568,3.06,3.0638,3.0695,3.0738,3.0764,3.0794,3.084,3.0903,3.0879,3.0902,3.0896,3.0935,3.1021,3.0903,3.0904,3.0924,3.112,3.1139,3.1156,3.1007,3.101,3.1012,3.1117,0,3.0602,3.0701,3.0695,3.0788,3.0833,3.0808,3.0856,3.0881,3.0887,3.0926,3.0933,3.0978,3.0942,3.0956,3.0994,3.1002,3.106,3.0995,3.1049,3.1051,3.1042,3.1174,3.1195,3.1294,3.1131,3.1133,3.1135,0,3.0739,3.0773,3.087,3.0894,3.0913,3.0957,3.0995,3.1033,3.106,3.1062,3.1088,3.1075,3.113,3.1082,3.1158,3.1114,3.1136,3.1144,3.1147,3.1152,3.1098,3.1182,3.1325,3.1339,3.1156,3.1154,3.1153,0,3.0829,3.09,3.0967,3.0984,3.1014,3.1045,3.1059,3.1083,3.1108,3.1142,3.1158,3.1197,3.1219,3.1249,3.1246,3.1212,3.1323,3.1275,3.1325,3.1325,3.135,3.1348,3.1498,3.1365,3.1365,3.1364,3.1364,0,3.0948,3.1008,3.1008,3.1049,3.1115,3.1108,3.1173,3.1184,3.1205,3.1247,3.1227,3.1267,3.1261,3.13,3.1298,3.1361,3.1371,3.1373,3.1372,3.1375,3.1375,3.1389,3.1382,3.1368,3.1367,3.1367,3.1366,0,3.106,3.1063,3.1134,3.1156,3.1163,3.1211,3.123,3.1268,3.1272,3.1326,3.1338,3.1345,3.139,3.139,3.1442,3.144,3.1517,3.1508,3.1508,3.1506,3.1556,3.1551,3.172,3.1741,3.1595,3.1596,3.1598,0,3.1136,3.1181,3.1208,3.1235,3.1251,3.1294,3.132,3.1315,3.1342,3.1376,3.141,3.1453,3.1488,3.1561,3.157,3.1609,3.1601,3.1657,3.1606,3.1607,3.1601,3.1598,3.1602,3.1667,3.1668,3.167,3.1671,0,3.1269,3.1267,3.1306,3.1345,3.1376,3.1407,3.1435,3.1457,3.1455,3.1487,3.1533,3.156,3.1612,3.1655,3.1693,3.1706,3.1688,3.1687,3.17,3.1703,3.1701,3.1702,3.1534,3.1683,3.1682,3.1681,3.168,3.168,3.1365,3.1403,3.1428,3.1471,3.1491,3.1518,3.1555,3.1563,3.1602,3.1644,3.1638,3.169,3.1714,3.1762,3.1779,3.1818,3.1798,3.1818,3.1823,3.1828,3.1833,3.1695,3.1825,3.1825,3.1824,3.1824,3.1824,0,3.1496,3.151,3.155,3.1589,3.1623,3.1603,3.1633,3.1662,3.1707,3.1732,3.1766,3.1818,3.1859,3.1872,3.1911,3.194,3.1933,3.1951,3.1948,3.1951,3.1849,3.1833,3.1956,3.1956,3.1956,3.1956,3.1956,3.1956,3.1568,3.1632,3.1634,3.1707,3.1721,3.1771,3.179,3.1813,3.1832,3.1892,3.1926,3.1934,3.1953,3.1994,3.203,3.2033,3.2048,3.2069,3.2068,3.1972,3.1959,3.1946,3.1931,3.2073,3.2073,3.2167,3.2168,3.2169]}]]